Temperature
25 25 24 24 27 29 30 32 33 32 32 31 31 31 30 29 28 26 24 24 22 22 21 21 21 20 20 19 19 19 19 19 19 19 19 19 18 18 18 18 18 18 18 18 18 18 18 18 18
25 24 25 27 29 28 31 32 32 32 32 31 31 30 30 28 27 25 24 23 22 22 21 21 20 20 20 19 19 19 19 19 19 18 18 18 18 18 18 18 18 18 18 18 18 18 18 18 18
25 25 27 30 30 30 31 32 32 32 32 31 31 30 29 28 26 25 24 23 22 21 21 21 20 20 20 19 19 19 19 19 19 18 18 18 18 18 18 18 18 18 18 18 18 18 18 18 18
24 27 29 30 31 32 33 33 32 32 31 31 30 30 28 27 26 25 24 24 22 21 21 21 21 20 20 19 19 19 19 19 18 18 18 18 18 18 18 18 18 18 18 18 18 18 18 18 18
26 29 30 30 31 33 34 33 32 32 32 31 30 29 27 26 25 25 24 24 23 21 21 21 21 20 20 19 19 19 19 19 19 18 18 18 18 18 18 18 18 18 18 18 18 18 18 18 18
29 31 30 31 32 33 34 33 33 32 31 31 29 28 26 26 25 25 24 24 23 21 21 21 21 20 20 20 19 19 19 19 19 18 18 18 18 18 18 18 18 18 18 18 18 18 18 18 18
30 31 31 32 32 33 34 33 33 32 31 31 30 28 26 25 25 25 24 24 23 22 21 21 21 20 20 20 19 19 19 19 19 19 18 18 18 18 18 18 18 18 18 18 18 18 18 18 18
30 31 31 32 32 32 33 33 32 32 31 30 30 29 27 25 25 25 24 24 23 22 21 21 20 20 20 20 19 19 19 19 19 19 18 18 18 18 18 18 18 18 18 18 18 18 18 18 18
30 30 30 32 33 33 33 33 32 31 31 30 29 28 27 25 25 24 24 24 23 22 22 21 20 20 20 19 19 19 19 19 19 19 18 18 18 18 18 18 18 18 18 18 18 18 18 18 18
31 30 31 33 34 33 33 33 32 32 31 30 28 27 26 25 25 25 24 24 23 22 22 21 21 20 20 19 19 19 19 19 19 18 18 18 18 18 18 18 18 18 18 18 18 18 18 18 18
32 32 33 33 33 33 33 32 32 32 31 29 28 27 26 25 25 25 24 24 23 22 22 21 21 20 20 19 19 19 19 18 18 18 18 18 18 18 18 18 18 18 18 18 18 18 18 18 18
33 33 33 33 33 33 33 32 32 32 31 29 28 27 26 26 25 25 24 24 23 22 22 21 21 21 20 20 19 19 19 18 18 18 18 18 18 18 18 18 18 18 18 18 18 18 18 18 18
32 33 33 33 33 33 33 32 32 32 30 29 28 27 27 26 26 25 24 24 23 22 22 21 21 21 20 20 19 19 19 18 18 18 18 18 18 18 18 18 18 18 18 18 18 18 18 18 18
33 33 33 33 33 32 33 32 32 31 30 29 28 27 27 26 26 25 24 24 23 22 21 21 21 20 20 20 19 19 19 19 18 18 18 18 18 18 18 18 18 18 18 18 18 18 18 18 17
32 32 32 33 33 33 32 32 32 31 30 30 29 28 27 26 26 25 24 24 23 22 21 21 20 20 20 19 19 19 19 19 18 18 18 18 18 18 18 18 18 18 18 18 18 18 18 18 17
32 31 31 32 33 33 32 30 32 31 30 30 29 28 27 26 25 25 24 23 23 22 21 20 20 20 20 19 19 19 19 19 19 18 18 18 18 18 18 18 18 18 18 18 18 18 18 17 17
31 30 30 32 33 33 32 30 31 31 30 30 29 28 27 26 25 25 24 23 22 22 21 20 20 20 19 19 19 19 19 19 18 18 18 18 18 18 18 18 18 18 18 18 18 18 18 17 17
30 30 31 31 33 32 31 31 31 31 30 30 29 28 27 26 25 24 24 23 22 21 21 20 20 19 19 19 19 18 18 18 18 18 18 18 18 18 18 18 18 18 18 18 18 18 18 17 17
31 31 31 32 33 32 31 31 31 31 31 30 29 28 27 26 25 24 23 23 22 21 20 20 19 19 19 18 18 18 18 18 18 18 18 18 18 18 18 18 18 18 18 18 17 17 17 17 17
31 30 31 32 33 32 31 31 31 31 30 30 29 28 27 26 25 24 23 23 22 21 20 20 19 19 19 18 18 18 18 18 18 18 18 18 18 18 18 18 18 18 18 18 17 17 17 17 17
31 30 31 31 32 31 30 30 30 30 30 29 29 28 27 26 25 24 23 23 22 21 20 20 19 19 19 18 18 18 18 18 18 18 18 18 18 18 18 18 18 18 17 18 17 17 17 17 17
30 31 31 31 30 30 29 28 28 29 28 29 28 28 27 26 25 24 23 23 22 21 20 20 19 19 19 18 18 18 18 18 18 18 18 18 18 18 18 18 18 17 17 17 17 17 17 17 17
30 32 31 31 30 29 29 28 28 28 27 27 28 28 27 27 26 24 24 23 22 21 20 20 19 19 19 18 18 18 18 18 18 18 18 18 18 17 17 17 17 17 17 17 17 17 17 17 17
31 31 30 30 30 28 28 28 27 27 27 27 28 27 27 26 26 24 24 23 22 22 21 20 19 19 19 18 18 18 18 18 17 17 17 17 17 17 17 17 17 17 17 17 17 17 17 17 17
30 29 28 27 27 27 28 28 27 28 28 28 27 27 27 26 25 24 23 23 22 22 21 20 19 19 19 19 18 18 18 18 17 17 17 17 17 17 17 17 17 17 17 17 17 17 17 17 17
29 29 26 25 26 27 28 27 27 28 28 28 27 26 26 25 25 24 23 23 22 21 21 20 19 19 19 18 18 18 18 18 17 17 17 17 17 17 17 17 17 17 17 17 17 17 17 16 16
29 28 29 27 27 26 27 27 27 27 27 27 27 26 26 25 24 24 23 22 22 21 21 20 19 19 19 19 19 18 18 18 18 17 17 17 17 17 17 17 17 17 17 17 16 16 16 16 16
30 29 28 27 25 25 26 26 26 26 27 27 27 26 25 25 24 23 22 22 22 21 20 20 19 19 19 19 19 18 18 18 18 17 17 17 17 17 17 17 17 17 17 16 16 16 16 16 16
29 28 28 28 27 26 25 25 27 26 27 26 26 26 25 24 23 23 22 22 21 20 20 20 19 19 19 18 18 18 18 18 18 17 17 17 17 17 17 17 17 17 16 16 16 16 16 16 16
29 28 28 26 26 26 26 25 27 27 26 25 25 24 24 23 23 22 21 21 21 20 20 19 19 19 18 18 18 18 18 17 17 17 17 17 17 17 17 17 16 16 16 16 16 16 16 16 16
Wind_Speed
9 11 10 6 5 4 1 6 11 12 12 12 12 12 14 15 10 9 10 15 19 17 17 16 14 13 12 11 11 10 9 9 8 8 8 8 8 7 7 7 6 5 5 5 5 5 5 5 5
9 12 9 5 4 3 2 8 11 12 10 10 11 13 14 15 14 11 12 14 18 17 16 16 15 13 12 11 10 10 9 8 8 7 7 7 7 7 6 6 5 5 5 5 5 4 4 4 4
11 15 7 5 6 4 4 10 10 11 9 9 11 12 11 11 12 10 12 15 17 17 18 17 15 14 12 11 10 9 9 9 8 8 8 8 7 7 7 6 5 5 6 5 4 4 4 3 3
8 7 5 5 6 1 6 9 8 8 8 8 8 9 11 11 11 12 13 15 17 18 18 17 16 14 13 11 10 9 9 8 8 8 8 8 8 7 7 7 7 6 6 5 5 5 3 3 2
10 6 7 6 5 2 6 7 7 7 7 9 10 11 12 13 14 14 12 13 16 17 17 17 16 15 13 11 10 9 8 8 7 7 7 7 7 7 7 7 8 7 6 5 5 4 3 2 1
8 7 7 7 4 2 5 6 7 8 7 7 10 11 10 13 13 12 11 12 15 16 16 17 16 15 13 11 10 9 8 7 7 6 6 7 7 7 7 7 6 6 5 4 4 3 2 1 0
11 10 10 9 4 2 4 4 5 6 6 5 8 9 9 12 12 12 11 12 14 15 15 14 15 14 13 12 10 9 7 6 6 5 5 5 6 6 6 6 5 5 4 4 3 3 1 1 1
11 9 13 10 5 2 4 4 4 4 5 5 5 6 10 13 13 12 11 11 13 13 13 12 13 13 12 11 11 9 7 6 5 5 4 4 5 5 6 6 5 4 3 2 2 1 1 1 2
14 11 12 8 4 2 3 2 4 5 5 5 6 8 14 16 14 12 11 10 10 11 10 10 10 10 10 11 10 9 8 6 5 4 4 4 4 5 6 6 7 5 4 3 3 3 3 3 3
11 10 11 6 3 2 3 2 3 3 5 6 8 10 15 15 13 12 11 11 10 10 9 8 8 8 7 8 9 6 6 6 5 4 4 3 2 3 4 8 8 6 5 5 4 4 4 5 3
12 12 9 6 4 1 2 2 1 2 4 7 10 12 12 14 12 11 10 10 10 10 8 8 7 7 6 5 5 4 4 5 4 4 2 2 1 2 4 5 6 5 5 5 4 5 4 3 1
13 11 9 7 5 4 4 3 2 1 2 8 12 14 13 12 12 11 9 9 10 10 9 8 7 6 5 5 3 3 3 3 3 4 2 1 0 1 2 1 3 3 2 2 2 2 1 1 1
12 11 9 7 6 6 6 5 4 3 5 9 12 13 13 12 12 12 11 10 11 10 9 8 7 7 5 4 1 2 2 2 3 3 2 2 1 1 2 1 0 0 1 2 1 2 1 1 2
10 11 9 8 9 8 8 7 7 5 6 9 11 12 11 11 12 11 10 9 10 9 9 7 7 7 5 3 1 1 1 2 3 3 3 2 2 1 1 0 1 1 1 1 1 2 2 2 2
10 11 12 12 12 10 9 9 8 8 7 8 10 11 10 9 11 11 10 9 10 9 9 7 7 7 5 3 1 1 1 2 2 3 3 2 2 1 0 0 0 1 0 1 1 1 2 2 2
12 13 13 13 12 10 10 10 8 9 9 8 9 9 10 8 9 10 10 9 9 9 8 6 7 7 5 3 1 1 1 1 1 3 3 2 1 1 0 0 0 0 1 1 1 1 2 2 1
13 14 15 13 12 10 10 8 6 8 9 9 9 9 10 8 8 9 9 9 9 9 9 6 5 6 5 3 2 1 1 1 1 3 3 1 0 1 1 1 1 1 0 0 0 2 1 1 1
12 13 14 12 9 9 10 10 9 10 10 10 10 10 10 9 8 9 9 10 10 10 9 7 5 5 4 3 2 1 1 1 1 2 2 2 0 1 0 0 1 1 1 1 1 2 1 1 0
14 14 12 9 7 8 10 10 9 9 9 10 10 10 10 10 9 10 10 11 11 10 8 7 6 5 3 2 2 1 1 0 0 1 2 2 0 1 0 0 0 0 0 1 0 1 1 1 1
15 14 12 8 5 7 9 10 9 8 7 7 9 10 9 10 10 9 10 11 11 10 9 8 6 6 4 3 2 2 2 2 1 1 2 2 2 2 2 1 1 1 1 0 1 1 1 1 1
14 13 12 10 7 8 10 11 8 8 7 6 8 9 9 10 10 10 10 10 11 10 9 8 7 6 4 4 2 2 1 1 1 2 1 1 1 1 1 1 1 1 1 1 1 1 1 1 0
13 12 12 12 11 9 9 9 8 8 7 7 8 8 8 10 12 11 11 10 10 11 10 8 7 6 5 4 4 3 3 2 2 2 2 2 2 2 2 2 1 1 1 1 2 1 1 1 1
12 12 12 14 12 12 10 9 7 9 8 8 7 7 8 9 11 11 11 11 10 10 10 9 7 6 6 5 4 3 3 2 2 2 2 3 2 2 2 2 1 1 1 1 1 1 0 0 1
11 11 11 12 12 13 12 10 7 6 10 10 8 6 6 7 8 9 9 9 8 9 9 9 8 7 6 5 5 4 3 2 2 2 2 2 2 2 2 2 1 2 1 2 1 1 1 0 1
9 10 7 8 9 10 12 10 4 4 9 9 8 7 7 6 6 7 9 9 8 8 9 9 9 8 7 6 5 4 4 3 2 2 2 2 2 2 2 2 2 1 2 2 2 2 1 1 1
10 11 8 9 9 9 10 7 3 3 5 8 7 5 6 6 5 6 7 7 7 6 7 7 8 8 8 7 5 5 4 3 3 3 3 2 1 1 2 3 2 2 2 2 2 2 2 2 1
10 10 11 12 14 11 6 4 5 6 5 7 8 6 4 5 5 4 5 6 5 5 6 6 7 7 7 7 6 5 4 3 2 2 3 2 2 2 3 3 3 2 1 1 1 2 2 2 2
12 10 8 9 9 10 7 6 5 8 8 6 7 7 5 6 5 5 3 4 4 4 5 5 6 6 7 7 6 6 5 4 3 2 3 3 2 2 3 3 3 3 2 2 2 2 2 2 2
9 11 10 8 8 8 8 4 3 4 5 6 5 5 7 5 5 4 3 4 5 4 3 4 5 5 5 5 5 4 5 5 4 3 3 3 3 3 3 2 3 3 2 2 1 2 2 2 2
9 10 9 7 8 9 7 2 4 6 7 6 6 7 6 5 3 3 3 5 4 3 2 3 3 4 5 5 4 3 3 4 4 3 3 3 3 3 3 2 2 3 2 2 2 2 2 2 2
Wind_Direction
234 240 234 250 251 253 308 68 74 69 65 56 53 57 58 55 59 87 107 107 109 111 115 112 108 105 101 97 91 86 83 77 75 76 74 72 69 69 67 68 74 91 98 100 99 100 104 104 103
253 251 246 247 255 265 87 79 75 74 76 75 67 66 68 68 77 98 108 111 115 116 117 112 112 109 105 100 94 88 84 80 80 80 77 75 73 73 75 70 74 88 98 103 102 99 102 103 100
263 261 264 244 245 250 81 79 81 83 81 80 76 66 61 77 86 102 116 120 117 114 113 116 117 113 109 104 98 92 87 83 81 79 77 77 77 74 72 66 70 91 95 95 96 94 95 97 95
262 247 238 262 275 30 81 94 94 88 79 71 70 77 75 80 97 111 124 122 119 117 117 121 122 118 114 109 104 97 91 85 83 82 81 80 78 76 71 66 69 91 92 89 84 78 83 85 79
250 258 246 258 271 63 84 96 105 91 82 77 78 86 91 94 106 120 125 120 119 117 120 125 126 123 121 118 113 106 99 92 87 86 85 85 82 82 77 73 72 78 82 85 85 76 69 73 78
257 255 258 257 245 107 92 96 100 91 86 91 99 97 97 114 119 125 121 118 117 119 120 126 131 131 130 129 125 119 112 105 98 93 93 94 91 92 90 86 81 82 81 86 91 91 84 83 141
259 275 274 270 240 143 96 88 93 100 107 105 108 108 120 125 127 128 123 120 116 118 123 134 137 139 140 140 137 131 127 121 116 109 107 112 114 114 111 104 95 91 84 84 89 83 86 148 215
257 279 282 271 249 161 104 98 91 87 96 89 97 119 137 134 136 133 129 125 120 122 129 138 140 144 148 146 146 144 144 141 139 140 140 141 142 142 140 131 120 116 116 114 116 115 171 202 233
254 260 271 268 256 137 117 127 106 98 94 83 77 101 131 137 140 141 137 131 123 123 128 138 139 144 148 146 141 150 156 155 157 155 163 174 171 160 152 141 143 152 161 176 185 206 213 220 231
238 246 261 279 284 134 155 183 120 140 118 107 97 108 130 140 148 152 150 144 137 133 134 134 134 136 137 130 137 151 154 149 162 143 167 189 162 142 136 148 163 176 187 192 205 218 228 232 232
239 242 263 275 286 271 194 205 205 196 152 139 136 141 147 153 155 155 153 147 140 137 135 133 127 124 123 119 132 141 139 143 160 139 143 147 134 141 129 150 168 187 197 203 194 212 235 233 226
248 247 253 263 283 265 240 230 235 258 105 138 145 152 160 168 161 155 152 151 146 144 141 135 128 119 106 103 119 139 129 134 131 128 120 120 91 60 105 141 158 181 179 182 174 161 179 332 33
247 253 251 253 256 257 248 229 223 205 137 131 142 152 165 166 162 158 157 158 150 145 142 130 120 108 100 91 95 111 112 122 115 131 143 119 77 25 49 33 14 133 87 113 108 100 89 45 44
253 255 251 248 245 239 241 235 224 189 160 152 155 160 168 167 163 155 155 154 147 141 137 130 125 114 113 114 93 69 90 124 125 124 112 118 101 41 29 17 333 55 59 43 74 86 93 72 48
261 260 249 239 234 231 230 234 223 180 171 169 163 164 160 165 160 156 155 155 145 141 136 139 141 130 131 133 165 123 111 98 89 97 91 81 95 99 3 348 265 52 147 117 83 87 100 91 72
248 245 247 240 226 216 222 231 208 173 178 177 164 157 152 164 169 161 155 153 144 140 136 147 150 138 142 143 159 130 107 99 97 112 104 82 62 99 148 252 47 237 206 107 151 99 90 78 67
239 238 241 234 216 216 223 234 209 181 182 177 170 162 158 161 169 153 151 145 136 131 133 142 130 135 147 148 155 136 100 96 100 101 96 90 53 91 149 279 33 267 301 88 89 91 100 116 127
242 241 242 236 212 217 223 228 200 193 184 180 176 167 163 164 171 152 147 140 133 128 131 135 125 121 131 134 139 111 88 71 88 94 101 97 195 232 206 148 19 329 21 52 68 88 90 86 36
263 262 260 244 208 222 224 223 204 198 189 180 171 164 164 161 156 149 152 147 140 135 137 141 141 133 142 143 154 158 152 175 115 119 120 122 145 260 211 338 170 309 61 28 10 119 159 159 115
260 265 266 260 221 241 247 236 207 189 191 185 168 162 165 160 154 154 155 154 149 147 150 155 152 152 166 148 157 179 175 188 171 118 136 156 179 213 195 183 184 165 179 106 326 337 285 234 125
256 260 263 261 239 239 260 247 215 177 179 185 173 169 168 164 163 161 160 159 159 158 162 162 157 159 169 157 169 180 167 213 182 174 175 187 193 189 206 181 190 214 186 180 217 273 274 275 216
256 255 266 268 254 248 243 255 228 186 178 188 185 172 174 165 165 168 167 169 168 165 163 155 156 158 165 170 180 188 191 206 203 194 184 194 203 209 195 194 196 229 186 169 201 176 270 250 267
264 273 267 270 265 259 250 250 241 179 183 195 185 176 170 165 164 164 168 170 169 166 165 162 157 163 169 181 178 201 210 205 201 188 182 188 189 212 226 189 190 213 215 188 169 125 278 291 285
265 271 264 264 264 256 257 255 243 197 185 191 175 166 151 154 154 158 161 154 163 168 166 161 159 167 172 182 184 203 214 214 201 186 187 188 185 201 211 193 185 207 220 193 201 186 175 207 10
253 260 261 258 253 251 256 253 222 173 159 164 154 161 152 150 152 158 159 160 163 168 167 164 162 170 178 188 190 196 206 204 209 204 206 205 197 189 188 191 190 203 215 201 191 178 181 181 188
242 247 252 261 260 259 245 234 192 114 113 131 131 135 143 140 138 152 153 155 158 158 157 160 165 175 181 187 192 191 197 207 211 212 214 203 214 179 159 163 162 177 209 206 180 184 193 168 186
249 250 256 266 277 276 254 209 161 143 137 141 137 144 142 130 122 124 148 151 154 160 155 154 162 174 179 184 188 183 183 204 210 193 206 206 204 175 144 155 159 170 186 153 198 187 183 177 189
252 261 261 258 271 276 265 242 209 171 161 144 140 147 131 113 109 94 106 133 133 146 150 150 155 169 179 182 185 182 184 190 196 198 192 178 178 142 150 162 166 176 180 176 196 189 175 175 180
242 250 262 271 269 271 271 270 158 144 133 136 129 117 104 104 110 105 117 126 115 109 132 151 155 162 166 175 182 174 175 181 189 197 179 165 166 145 153 173 169 173 180 177 191 195 179 190 200
257 254 253 261 273 280 277 263 94 95 90 85 91 84 85 78 72 94 88 98 95 94 106 127 145 164 169 165 160 159 161 170 182 187 178 167 161 158 161 176 175 179 169 162 178 205 214 212 211
Height
1494 1494 1494 1497 1494 1490 1485 1472 1467 1472 1475 1478 1479 1481 1485 1489 1495 1507 1509 1508 1508 1508 1509 1510 1511 1512 1513 1513 1514 1514 1514 1514 1514 1514 1514 1514 1515 1515 1515 1516 1516 1517 1518 1519 1520 1521 1522 1522 1523
1494 1495 1497 1495 1492 1497 1485 1471 1472 1475 1478 1481 1482 1484 1487 1493 1499 1504 1507 1509 1509 1510 1510 1511 1512 1513 1514 1514 1515 1515 1515 1515 1515 1515 1515 1515 1516 1516 1516 1516 1516 1517 1518 1519 1520 1521 1522 1523 1523
1494 1496 1497 1487 1488 1489 1481 1472 1473 1476 1479 1481 1484 1488 1492 1498 1502 1505 1508 1509 1510 1511 1511 1513 1514 1515 1515 1516 1516 1516 1516 1516 1516 1516 1516 1516 1516 1516 1516 1516 1515 1516 1519 1520 1521 1522 1523 1523 1524
1496 1496 1493 1487 1485 1473 1470 1471 1474 1477 1481 1483 1485 1490 1497 1501 1504 1506 1509 1510 1511 1512 1512 1514 1515 1516 1516 1517 1517 1518 1518 1518 1518 1517 1517 1517 1517 1517 1517 1517 1515 1516 1519 1521 1522 1523 1523 1524 1525
1498 1494 1488 1488 1481 1470 1468 1472 1475 1478 1481 1485 1488 1494 1499 1504 1505 1507 1510 1512 1512 1513 1514 1515 1516 1517 1518 1518 1519 1519 1519 1519 1519 1519 1519 1519 1519 1519 1519 1519 1518 1519 1520 1522 1523 1523 1524 1525 1525
1496 1487 1490 1489 1479 1469 1469 1472 1476 1479 1483 1486 1490 1495 1502 1505 1507 1509 1511 1513 1513 1514 1514 1516 1517 1518 1519 1519 1520 1520 1521 1521 1521 1521 1520 1521 1521 1521 1521 1521 1521 1521 1522 1523 1524 1524 1525 1525 1526
1494 1487 1487 1482 1477 1473 1471 1474 1476 1480 1484 1487 1490 1495 1502 1506 1508 1510 1512 1514 1515 1515 1516 1517 1518 1519 1520 1521 1521 1522 1522 1522 1522 1522 1522 1522 1522 1523 1523 1523 1523 1523 1524 1524 1525 1525 1525 1526 1526
1491 1487 1485 1480 1476 1475 1472 1475 1478 1481 1484 1487 1490 1494 1501 1505 1507 1510 1512 1514 1516 1516 1517 1518 1519 1520 1521 1522 1523 1523 1523 1524 1524 1524 1524 1524 1524 1524 1524 1525 1525 1525 1525 1525 1526 1526 1526 1527 1527
1489 1490 1488 1479 1475 1474 1474 1476 1479 1483 1485 1488 1491 1494 1499 1503 1507 1510 1512 1514 1516 1518 1519 1520 1521 1522 1523 1523 1524 1524 1525 1525 1525 1525 1526 1526 1526 1526 1526 1526 1526 1526 1526 1527 1527 1527 1527 1527 1528
1484 1487 1482 1472 1470 1472 1475 1477 1479 1482 1485 1489 1493 1497 1500 1503 1506 1509 1511 1514 1516 1518 1520 1521 1522 1523 1524 1525 1525 1526 1526 1526 1526 1526 1527 1527 1528 1528 1528 1528 1528 1528 1528 1528 1528 1528 1528 1528 1529
1479 1480 1475 1472 1472 1473 1475 1477 1479 1480 1484 1489 1492 1496 1500 1503 1506 1508 1511 1513 1516 1518 1520 1521 1522 1524 1525 1525 1526 1527 1527 1527 1528 1528 1528 1528 1528 1529 1529 1529 1529 1529 1529 1529 1529 1529 1529 1529 1530
1477 1475 1474 1473 1474 1474 1476 1478 1480 1481 1485 1488 1491 1495 1499 1502 1505 1507 1510 1513 1515 1518 1520 1521 1523 1524 1525 1525 1526 1527 1528 1528 1528 1528 1528 1529 1529 1529 1530 1530 1530 1530 1530 1530 1530 1530 1530 1530 1530
1475 1473 1473 1474 1475 1475 1476 1477 1479 1481 1485 1488 1492 1494 1497 1501 1504 1507 1509 1512 1514 1517 1519 1521 1522 1523 1524 1525 1527 1528 1528 1528 1529 1529 1529 1529 1529 1529 1530 1530 1530 1531 1531 1531 1531 1531 1531 1531 1531
1474 1473 1472 1473 1474 1474 1475 1476 1478 1480 1484 1487 1490 1493 1497 1500 1503 1506 1508 1511 1513 1515 1518 1520 1522 1522 1524 1525 1526 1527 1528 1529 1529 1529 1529 1529 1529 1529 1530 1530 1530 1531 1531 1532 1532 1531 1531 1531 1531
1474 1474 1472 1471 1471 1471 1474 1476 1475 1479 1482 1486 1489 1492 1496 1499 1502 1505 1507 1510 1512 1515 1517 1519 1521 1522 1523 1524 1526 1527 1528 1529 1529 1529 1529 1529 1529 1529 1529 1529 1530 1531 1531 1532 1532 1532 1531 1532 1531
1473 1475 1477 1468 1466 1468 1475 1481 1473 1476 1480 1484 1487 1491 1495 1499 1501 1504 1506 1509 1512 1514 1516 1518 1520 1521 1522 1524 1525 1526 1527 1528 1528 1528 1528 1528 1528 1528 1528 1529 1530 1530 1531 1532 1531 1531 1531 1531 1531
1475 1479 1476 1468 1462 1464 1470 1476 1471 1474 1478 1481 1485 1489 1493 1497 1500 1502 1505 1508 1510 1512 1514 1517 1519 1520 1522 1523 1524 1526 1526 1527 1527 1527 1527 1527 1528 1528 1528 1528 1529 1530 1531 1531 1531 1531 1531 1531 1531
1478 1474 1471 1467 1461 1463 1469 1471 1470 1472 1475 1479 1483 1487 1491 1495 1498 1500 1504 1507 1509 1511 1513 1516 1518 1519 1521 1522 1523 1524 1525 1526 1526 1526 1526 1526 1527 1527 1527 1527 1528 1529 1530 1530 1530 1530 1530 1531 1531
1466 1467 1467 1461 1456 1462 1467 1468 1467 1469 1472 1476 1481 1486 1490 1493 1496 1499 1503 1506 1508 1510 1512 1514 1516 1518 1519 1521 1522 1523 1524 1525 1525 1525 1525 1525 1526 1526 1526 1527 1528 1528 1529 1529 1529 1530 1530 1530 1531
1465 1468 1467 1460 1456 1461 1465 1466 1464 1467 1470 1474 1478 1483 1488 1491 1495 1498 1502 1504 1506 1508 1510 1512 1514 1516 1517 1519 1520 1522 1523 1523 1524 1524 1524 1524 1524 1525 1526 1526 1526 1527 1528 1528 1529 1529 1529 1530 1530
1466 1468 1466 1464 1460 1461 1467 1470 1466 1466 1469 1473 1477 1481 1485 1489 1492 1496 1499 1502 1505 1507 1508 1510 1512 1514 1516 1517 1519 1520 1521 1522 1522 1522 1523 1523 1523 1523 1524 1525 1525 1526 1526 1526 1527 1527 1528 1529 1530
1470 1460 1460 1461 1466 1471 1470 1485 1471 1468 1470 1473 1476 1479 1483 1486 1490 1493 1497 1500 1503 1505 1507 1509 1510 1512 1514 1515 1517 1518 1519 1519 1520 1521 1521 1521 1522 1522 1523 1523 1524 1524 1525 1525 1526 1526 1527 1528 1528
1462 1456 1458 1460 1464 1471 1470 1481 1475 1467 1474 1475 1476 1478 1481 1484 1487 1491 1494 1498 1501 1504 1505 1507 1508 1510 1512 1513 1515 1516 1517 1518 1518 1519 1519 1520 1520 1520 1521 1521 1522 1523 1523 1524 1524 1525 1526 1526 1527
1457 1459 1460 1461 1466 1483 1476 1479 1482 1470 1473 1474 1475 1478 1481 1484 1487 1490 1493 1496 1499 1502 1504 1505 1506 1508 1509 1511 1512 1513 1514 1516 1517 1517 1518 1518 1518 1519 1519 1520 1521 1521 1522 1522 1523 1523 1524 1525 1526
1461 1471 1483 1487 1488 1486 1470 1474 1478 1465 1464 1470 1474 1478 1481 1484 1486 1489 1491 1494 1496 1499 1501 1502 1504 1505 1507 1508 1510 1511 1512 1513 1514 1515 1516 1516 1517 1517 1518 1519 1519 1520 1520 1521 1522 1522 1523 1524 1524
1463 1469 1488 1500 1494 1484 1471 1477 1473 1466 1466 1470 1474 1477 1480 1483 1485 1487 1489 1492 1495 1496 1499 1500 1502 1503 1505 1506 1507 1509 1510 1511 1512 1513 1514 1515 1516 1516 1517 1517 1518 1519 1519 1520 1521 1521 1522 1522 1523
1464 1466 1464 1476 1477 1484 1476 1473 1471 1467 1469 1471 1473 1477 1479 1482 1484 1487 1489 1491 1493 1495 1497 1498 1499 1501 1502 1504 1505 1506 1508 1509 1511 1512 1513 1513 1514 1515 1516 1516 1516 1517 1518 1519 1520 1520 1520 1521 1522
1457 1459 1467 1476 1490 1494 1484 1481 1476 1470 1469 1470 1472 1475 1479 1482 1485 1487 1489 1490 1492 1494 1496 1497 1498 1499 1500 1502 1503 1504 1506 1507 1508 1509 1510 1511 1512 1513 1514 1515 1515 1516 1516 1517 1518 1519 1520 1520 1521
1460 1463 1465 1467 1470 1487 1494 1487 1464 1466 1467 1470 1473 1476 1479 1482 1485 1487 1489 1490 1491 1492 1494 1496 1497 1498 1499 1500 1501 1503 1504 1505 1506 1507 1508 1509 1511 1512 1512 1513 1514 1514 1515 1516 1516 1517 1518 1519 1519
1455 1459 1464 1478 1480 1475 1483 1487 1463 1465 1469 1472 1476 1479 1481 1483 1485 1487 1488 1489 1490 1492 1493 1495 1496 1497 1498 1499 1500 1502 1503 1504 1505 1506 1507 1508 1509 1510 1511 1512 1513 1513 1514 1514 1515 1516 1516 1517 1517